English version
lugares datos climáticos artículos

datos de Mairena del Aljarafe, Sevilla, España
Año Mes Dia Mostrar

  Fecha       hora        Temp.ext.    Hum.ext.  Dir.Viento   Vel.Viento  Presion al NM   T.int. Prec.hoy 

   07-07-2020    11:55      33.1º(+2.0)     34%      157(SE)      3.2 km/h    1013.5 hpa     30.5º    0.0 mm
   07-07-2020    11:50      33.1º(+2.2)     35%      157(SE)      1.6 km/h    1013.5 hpa     30.5º    0.0 mm
   07-07-2020    11:45      32.8º(+2.2)     36%      157(SE)      1.6 km/h    1013.5 hpa     30.5º    0.0 mm
   07-07-2020    11:40      32.8º(+2.6)     35%      157(SE)      1.6 km/h    1013.5 hpa     30.5º    0.0 mm
   07-07-2020    11:35      32.8º(+2.6)     36%      157(SE)      1.6 km/h    1013.4 hpa     30.5º    0.0 mm
   07-07-2020    11:30      32.6º(+2.5)     37%      157(SE)      1.6 km/h    1013.5 hpa     30.4º    0.0 mm
   07-07-2020    11:25      32.4º(+2.6)     37%      157(SE)      1.6 km/h    1013.4 hpa     30.4º    0.0 mm
   07-07-2020    11:20      32.2º(+2.8)     37%      157(SE)      1.6 km/h    1013.5 hpa     30.4º    0.0 mm
   07-07-2020    11:15      32.0º(+2.7)     37%         -         0.0 km/h    1013.4 hpa     30.4º    0.0 mm
   07-07-2020    11:10      31.7º(+2.4)     39%         -         0.0 km/h    1013.4 hpa     30.4º    0.0 mm
   07-07-2020    11:05      31.6º(+1.9)     39%      157(SE)      1.6 km/h    1013.4 hpa     30.4º    0.0 mm
   07-07-2020    11:00      31.3º(+2.1)     40%      157(SE)      1.6 km/h    1013.4 hpa     30.4º    0.0 mm
   07-07-2020    10:55      31.1º(+2.0)     40%      157(SE)      3.2 km/h    1013.4 hpa     30.4º    0.0 mm
   07-07-2020    10:50      31.3º(+2.5)     40%      180 (S)      1.6 km/h    1013.3 hpa     30.3º    0.0 mm
   07-07-2020    10:45      31.2º(+2.6)     40%      180 (S)      1.6 km/h    1013.2 hpa     30.3º    0.0 mm
   07-07-2020    10:40      31.4º(+3.1)     38%      180 (S)      3.2 km/h    1013.3 hpa     30.3º    0.0 mm
   07-07-2020    10:35      32.0º(+3.6)     36%      180 (S)      1.6 km/h    1013.3 hpa     30.3º    0.0 mm
   07-07-2020    10:30      32.1º(+3.7)     37%         -         0.0 km/h    1013.3 hpa     30.3º    0.0 mm
   07-07-2020    10:25      31.7º(+3.5)     38%         -         0.0 km/h    1013.4 hpa     30.3º    0.0 mm
   07-07-2020    10:20      31.4º(+3.6)     39%         -         0.0 km/h    1013.3 hpa     30.2º    0.0 mm
   07-07-2020    10:15      30.9º(+3.0)     40%         -         0.0 km/h    1013.4 hpa     30.2º    0.0 mm
   07-07-2020    10:10      30.6º(+3.0)     41%         -         0.0 km/h    1013.4 hpa     30.2º    0.0 mm
   07-07-2020    10:05      30.3º(+2.4)     42%         -         0.0 km/h    1013.4 hpa     30.2º    0.0 mm
   07-07-2020    10:00      29.8º(+1.7)     42%         -         0.0 km/h    1013.4 hpa     30.2º    0.0 mm
   07-07-2020    09:55      29.5º(+1.6)     42%         -         0.0 km/h    1013.5 hpa     30.2º    0.0 mm
   07-07-2020    09:50      29.1º(+1.5)     45%         -         0.0 km/h    1013.4 hpa     30.1º    0.0 mm
   07-07-2020    09:45      28.7º(+1.0)     44%      180 (S)      1.6 km/h    1013.4 hpa     30.1º    0.0 mm
   07-07-2020    09:40      28.4º(+0.5)     43%         -         0.0 km/h    1013.4 hpa     30.1º    0.0 mm
   07-07-2020    09:35      28.2º(+0.2)     42%         -         0.0 km/h    1013.4 hpa     29.9º    0.0 mm
   07-07-2020    09:30      28.2º(+0.2)     42%         -         0.0 km/h    1013.3 hpa     29.9º    0.0 mm
   07-07-2020    09:25      28.0º(+0.2)     42%         -         0.0 km/h    1013.4 hpa     29.9º    0.0 mm
   07-07-2020    09:20      27.8º(+0.3)     42%      180 (S)      1.6 km/h    1013.3 hpa     29.8º    0.0 mm
   07-07-2020    09:15      27.7º(+0.5)     45%         -         0.0 km/h    1013.2 hpa     29.8º    0.0 mm
   07-07-2020    09:10      27.5º(+0.7)     44%      180 (S)      1.6 km/h    1013.3 hpa     29.8º    0.0 mm
   07-07-2020    09:05      27.3º(+1.0)     45%      180 (S)      1.6 km/h    1013.2 hpa     29.8º    0.0 mm
   07-07-2020    09:00      27.1º(+0.9)     47%      180 (S)      1.6 km/h    1013.1 hpa     29.7º    0.0 mm
   07-07-2020    08:55      26.8º(+0.9)     50%      180 (S)      1.6 km/h    1013.0 hpa     29.7º    0.0 mm
   07-07-2020    08:50      26.7º(+1.1)     51%      180 (S)      1.6 km/h    1013.0 hpa     29.6º    0.0 mm
   07-07-2020    08:45      26.4º(+1.1)     52%      180 (S)      1.6 km/h    1013.2 hpa     29.6º    0.0 mm
   07-07-2020    08:40      26.2º(+1.0)     53%      180 (S)      1.6 km/h    1013.1 hpa     29.6º    0.0 mm
   07-07-2020    08:35      26.0º(+0.9)     53%         -         0.0 km/h    1013.2 hpa     29.6º    0.0 mm
   07-07-2020    08:30      25.9º(+0.6)     53%         -         0.0 km/h    1013.1 hpa     29.5º    0.0 mm
   07-07-2020    08:25      25.8º(+0.5)     56%         -         0.0 km/h    1013.1 hpa     29.5º    0.0 mm
   07-07-2020    08:20      25.5º(+0.6)     58%         -         0.0 km/h    1013.1 hpa     29.5º    0.0 mm
   07-07-2020    08:15      25.3º(+0.7)     59%         -         0.0 km/h    1013.0 hpa     29.5º    0.0 mm
   07-07-2020    08:10      25.2º(+1.0)     59%         -         0.0 km/h    1013.0 hpa     29.5º    0.0 mm
   07-07-2020    08:05      25.2º(+1.3)     59%         -         0.0 km/h    1013.0 hpa     29.4º    0.0 mm
   07-07-2020    08:00      25.1º(+1.4)     60%         -         0.0 km/h    1012.9 hpa     29.4º    0.0 mm
   07-07-2020    07:55      25.2º(+1.8)     60%         -         0.0 km/h    1012.9 hpa     29.4º    0.0 mm
   07-07-2020    07:50      25.2º(+2.0)     60%         -         0.0 km/h    1012.9 hpa     29.4º    0.0 mm
   07-07-2020    07:45      25.2º(+2.1)     59%         -         0.0 km/h    1012.9 hpa     29.4º    0.0 mm
   07-07-2020    07:40      25.2º(+2.1)     59%         -         0.0 km/h    1012.9 hpa     29.4º    0.0 mm
   07-07-2020    07:35      25.3º(+2.2)     59%         -         0.0 km/h    1012.8 hpa     29.4º    0.0 mm
   07-07-2020    07:30      25.3º(+2.2)     58%         -         0.0 km/h    1012.8 hpa     29.4º    0.0 mm
   07-07-2020    07:25      25.4º(+2.3)     58%         -         0.0 km/h    1012.8 hpa     29.4º    0.0 mm
   07-07-2020    07:20      25.5º(+2.4)     57%         -         0.0 km/h    1012.7 hpa     29.4º    0.0 mm
   07-07-2020    07:15      25.6º(+2.5)     56%         -         0.0 km/h    1012.7 hpa     29.4º    0.0 mm
   07-07-2020    07:10      25.6º(+2.5)     55%         -         0.0 km/h    1012.7 hpa     29.4º    0.0 mm
   07-07-2020    07:05      25.7º(+2.6)     54%         -         0.0 km/h    1012.7 hpa     29.4º    0.0 mm
   07-07-2020    07:00      25.7º(+2.6)     53%      180 (S)      1.6 km/h    1012.6 hpa     29.4º    0.0 mm
   07-07-2020    06:55      25.6º(+2.6)     53%      180 (S)      1.6 km/h    1012.5 hpa     29.4º    0.0 mm
   07-07-2020    06:50      25.6º(+2.6)     54%      180 (S)      1.6 km/h    1012.5 hpa     29.4º    0.0 mm
   07-07-2020    06:45      25.6º(+2.7)     59%         -         0.0 km/h    1012.6 hpa     29.4º    0.0 mm
   07-07-2020    06:40      25.6º(+2.6)     58%         -         0.0 km/h    1012.6 hpa     29.4º    0.0 mm
   07-07-2020    06:35      25.6º(+2.5)     57%         -         0.0 km/h    1012.6 hpa     29.4º    0.0 mm
   07-07-2020    06:30      25.6º(+2.5)     56%         -         0.0 km/h    1012.5 hpa     29.4º    0.0 mm
   07-07-2020    06:25      25.7º(+2.5)     57%         -         0.0 km/h    1012.5 hpa     29.4º    0.0 mm
   07-07-2020    06:20      25.7º(+2.5)     57%         -         0.0 km/h    1012.6 hpa     29.4º    0.0 mm
   07-07-2020    06:15      25.7º(+2.4)     57%         -         0.0 km/h    1012.6 hpa     29.4º    0.0 mm
   07-07-2020    06:10      25.7º(+2.4)     58%         -         0.0 km/h    1012.6 hpa     29.4º    0.0 mm
   07-07-2020    06:05      25.6º(+2.3)     57%         -         0.0 km/h    1012.5 hpa     29.4º    0.0 mm
   07-07-2020    06:00      25.6º(+2.3)     57%         -         0.0 km/h    1012.5 hpa     29.4º    0.0 mm
   07-07-2020    05:55      25.5º(+2.2)     58%      180 (S)      1.6 km/h    1012.5 hpa     29.4º    0.0 mm
   07-07-2020    05:50      25.4º(+2.1)     59%      180 (S)      1.6 km/h    1012.5 hpa     29.4º    0.0 mm
   07-07-2020    05:45      25.4º(+2.1)     59%      180 (S)      1.6 km/h    1012.5 hpa     29.4º    0.0 mm
   07-07-2020    05:40      25.4º(+2.1)     60%      180 (S)      3.2 km/h    1012.5 hpa     29.4º    0.0 mm
   07-07-2020    05:35      25.4º(+2.1)     60%      180 (S)      1.6 km/h    1012.6 hpa     29.4º    0.0 mm
   07-07-2020    05:30      25.4º(+2.1)     59%      180 (S)      1.6 km/h    1012.6 hpa     29.4º    0.0 mm
   07-07-2020    05:25      25.4º(+2.1)     60%         -         0.0 km/h    1012.5 hpa     29.4º    0.0 mm
   07-07-2020    05:20      25.4º(+2.1)     60%      180 (S)      3.2 km/h    1012.5 hpa     29.4º    0.0 mm
   07-07-2020    05:15      25.4º(+2.0)     60%      180 (S)      1.6 km/h    1012.5 hpa     29.4º    0.0 mm
   07-07-2020    05:10      25.3º(+1.9)     60%      180 (S)      1.6 km/h    1012.7 hpa     29.4º    0.0 mm
   07-07-2020    05:05      25.3º(+1.7)     60%      180 (S)      1.6 km/h    1012.7 hpa     29.4º    0.0 mm
   07-07-2020    05:00      25.2º(+1.6)     62%      180 (S)      1.6 km/h    1012.7 hpa     29.4º    0.0 mm
   07-07-2020    04:55      25.2º(+1.5)     63%      180 (S)      1.6 km/h    1012.8 hpa     29.4º    0.0 mm
   07-07-2020    04:50      25.2º(+1.5)     63%         -         0.0 km/h    1012.8 hpa     29.4º    0.0 mm
   07-07-2020    04:45      25.2º(+1.5)     64%         -         0.0 km/h    1012.7 hpa     29.3º    0.0 mm
   07-07-2020    04:40      25.2º(+1.4)     63%         -         0.0 km/h    1012.7 hpa     29.3º    0.0 mm
   07-07-2020    04:35      25.3º(+1.6)     64%         -         0.0 km/h    1012.7 hpa     29.3º    0.0 mm
   07-07-2020    04:30      25.3º(+1.6)     63%         -         0.0 km/h    1012.7 hpa     29.3º    0.0 mm
   07-07-2020    04:25      25.4º(+1.7)     63%         -         0.0 km/h    1012.7 hpa     29.3º    0.0 mm
   07-07-2020    04:20      25.5º(+1.8)     62%         -         0.0 km/h    1012.7 hpa     29.3º    0.0 mm
   07-07-2020    04:15      25.6º(+1.8)     62%         -         0.0 km/h    1012.6 hpa     29.3º    0.0 mm
   07-07-2020    04:10      25.6º(+1.5)     60%         -         0.0 km/h    1012.8 hpa     29.4º    0.0 mm
   07-07-2020    04:05      25.8º(+1.5)     61%      180 (S)      1.6 km/h    1012.8 hpa     29.4º    0.0 mm
   07-07-2020    04:00      25.8º(+1.5)     58%         -         0.0 km/h    1012.9 hpa     29.4º    0.0 mm
   07-07-2020    03:55      25.8º(+1.4)     57%         -         0.0 km/h    1012.9 hpa     29.5º    0.0 mm
   07-07-2020    03:50      25.9º(+1.3)     57%         -         0.0 km/h    1013.0 hpa     29.5º    0.0 mm
   07-07-2020    03:45      25.9º(+1.3)     57%         -         0.0 km/h    1013.0 hpa     29.5º    0.0 mm
   07-07-2020    03:40      25.9º(+1.3)     56%         -         0.0 km/h    1013.1 hpa     29.5º    0.0 mm
   07-07-2020    03:35      26.0º(+1.4)     56%         -         0.0 km/h    1013.0 hpa     29.5º    0.0 mm
   07-07-2020    03:30      26.0º(+1.3)     56%         -         0.0 km/h    1013.0 hpa     29.5º    0.0 mm
   07-07-2020    03:25      26.0º(+1.2)     56%      180 (S)      1.6 km/h    1013.0 hpa     29.5º    0.0 mm
   07-07-2020    03:20      26.1º(+0.9)     56%         -         0.0 km/h    1013.0 hpa     29.5º    0.0 mm
   07-07-2020    03:15      26.1º(+0.7)     55%      180 (S)      1.6 km/h    1013.1 hpa     29.5º    0.0 mm
   07-07-2020    03:10      26.1º(+0.5)     54%      180 (S)      1.6 km/h    1013.1 hpa     29.5º    0.0 mm
   07-07-2020    03:05      26.1º(+0.4)     54%      180 (S)      1.6 km/h    1013.1 hpa     29.5º    0.0 mm
   07-07-2020    03:00      26.1º(+0.3)     53%         -         0.0 km/h    1013.1 hpa     29.5º    0.0 mm
   07-07-2020    02:55      26.1º(+0.3)     53%         -         0.0 km/h    1013.2 hpa     29.6º    0.0 mm
   07-07-2020    02:50      26.1º(+0.2)     53%         -         0.0 km/h    1013.2 hpa     29.6º    0.0 mm
   07-07-2020    02:45      26.1º(+0.0)     53%      180 (S)      3.2 km/h    1013.3 hpa     29.6º    0.0 mm
   07-07-2020    02:40      26.2º(+0.1)     53%      180 (S)      1.6 km/h    1013.3 hpa     29.6º    0.0 mm
   07-07-2020    02:35      26.2º(+0.0)     54%      180 (S)      3.2 km/h    1013.3 hpa     29.6º    0.0 mm
   07-07-2020    02:30      26.3º(-0.1)     54%      180 (S)      1.6 km/h    1013.4 hpa     29.7º    0.0 mm
   07-07-2020    02:25      26.3º(-0.4)     54%      180 (S)      1.6 km/h    1013.4 hpa     29.7º    0.0 mm
   07-07-2020    02:20      26.4º(-0.7)     54%      180 (S)      3.2 km/h    1013.4 hpa     29.7º    0.0 mm
   07-07-2020    02:15      26.4º(-1.0)     54%      180 (S)      3.2 km/h    1013.4 hpa     29.7º    0.0 mm
   07-07-2020    02:10      26.4º(-1.2)     54%      180 (S)      3.2 km/h    1013.4 hpa     29.7º    0.0 mm
   07-07-2020    02:05      26.5º(-1.2)     54%      180 (S)      1.6 km/h    1013.4 hpa     29.7º    0.0 mm
   07-07-2020    02:00      26.6º(-1.1)     55%      180 (S)      1.6 km/h    1013.4 hpa     29.6º    0.0 mm
   07-07-2020    01:55      26.7º(----)     54%      180 (S)      1.6 km/h    1013.3 hpa     29.6º    0.0 mm
   07-07-2020    01:50      26.8º(----)     53%      180 (S)      3.2 km/h    1013.3 hpa     29.6º    0.0 mm
   07-07-2020    01:45      26.9º(----)     53%      180 (S)      1.6 km/h    1013.3 hpa     29.6º    0.0 mm
   07-07-2020    01:40      27.0º(----)     52%      180 (S)      3.2 km/h    1013.3 hpa     29.6º    0.0 mm
   07-07-2020    01:35      27.1º(----)     51%      180 (S)      3.2 km/h    1013.2 hpa     29.6º    0.0 mm
   07-07-2020    01:30      27.2º(----)     50%      180 (S)      1.6 km/h    1013.1 hpa     29.5º    0.0 mm
   07-07-2020    01:25      27.3º(----)     49%      180 (S)      1.6 km/h    1013.3 hpa     29.5º    0.0 mm
   07-07-2020    01:20      27.3º(----)     48%      225(SW)      3.2 km/h    1013.5 hpa     29.5º    0.0 mm
   07-07-2020    01:15      27.4º(----)     48%      225(SW)      3.2 km/h    1013.6 hpa     29.5º    0.0 mm
   07-07-2020    01:10      27.6º(----)     47%      247(SW)      4.8 km/h    1013.6 hpa     29.5º    0.0 mm
   07-07-2020    01:05      27.8º(----)     46%      247(SW)      3.2 km/h    1013.6 hpa     29.4º    0.0 mm
   07-07-2020    01:00      28.1º(----)     45%      247(SW)      3.2 km/h    1013.5 hpa     29.4º    0.0 mm
   07-07-2020    00:55      28.2º(----)     44%         -         0.0 km/h    1013.6 hpa     29.4º    0.0 mm
   07-07-2020    00:50      28.4º(----)     43%      247(SW)      1.6 km/h    1013.6 hpa     29.4º    0.0 mm
   07-07-2020    00:45      28.6º(----)     41%      247(SW)      3.2 km/h    1013.6 hpa     29.3º    0.0 mm
   07-07-2020    00:40      28.8º(----)     39%      247(SW)      1.6 km/h    1013.6 hpa     29.3º    0.0 mm
   07-07-2020    00:35      29.1º(----)     38%      270 (W)      1.6 km/h    1013.5 hpa     29.3º    0.0 mm
   07-07-2020    00:30      29.2º(----)     36%      270 (W)      1.6 km/h    1013.5 hpa     29.3º    0.0 mm
   07-07-2020    00:25      29.4º(----)     34%         -         0.0 km/h    1013.5 hpa     29.2º    0.0 mm
   07-07-2020    00:20      29.6º(----)     33%      292 (W)      1.6 km/h    1013.5 hpa     29.2º    0.0 mm
   07-07-2020    00:15      29.8º(----)     32%      292 (W)      1.6 km/h    1013.5 hpa     29.2º    0.0 mm
   07-07-2020    00:10      30.1º(----)     32%      292 (W)      1.6 km/h    1013.6 hpa     29.1º    0.0 mm
   07-07-2020    00:05      30.2º(----)     31%      292 (W)      3.2 km/h    1013.6 hpa     29.1º    0.0 mm
   07-07-2020    00:00      30.3º(----)     31%      292 (W)      1.6 km/h    1013.6 hpa     29.1º    0.0 mm